Flag for U.S.A. Weather past 2 weeks in Galveston, Texas, U.S.A.

Now
73 °F

Clear.


Feels Like: 74 °F
Forecast: 71 / 79 °F
Wind: 7 mph from Northeast

Location: Scholes Field

Current Time: Oct 21, 2014 at 11:56:59 PM

Latest Report: Oct 21, 2014 at 10:52 PM


Visibility: 10 mi

Pressure: 30.04 "Hg

Humidity: 76%

Dew point: 65 °F

Location of GalvestonLocation

Historic Weather in Galveston — Graph

°F

Galveston temperature yesterday

Maximum temperature yesterday: 80 °F (at 1:52 PM)
Minimum temperature yesterday: 72 °F (at 8:52 AM)
Average temperature yesterday: 75 °F

Past Weeks' High & Low Weather Summary

 TemperatureHumidityPressure
High87 °F (Oct 10, 1:52 PM)100% (Oct 7, 7:52 AM)30.13 "Hg (Oct 7, 7:52 AM)
Low62 °F (Oct 14, 6:52 AM)30% (Oct 14, 1:52 PM)29.74 "Hg (Oct 13, 12:52 PM)
Average77 °F75%29.98 "Hg
* Reported Oct 6 9:52 PM — Oct 21 9:52 PM, Galveston, Weather by CustomWeather, © 2014

Note: Actual official high and low records may vary slightly from our data, if they occured in-between our weather recording intervals... More about our weather records

Advertising

Galveston weather history for previous 24 hours

 ConditionsComfort  
Time TempWeatherWind HumidityBarometerVisibility
9:52 PM
Oct 21
73 °FClear.9 mph74%30.03 "Hg10 mi
8:52 PM74 °FClear.5 mph69%30.02 "Hg10 mi
7:52 PM75 °FClear.8 mph62%30.00 "Hg10 mi
6:52 PM75 °FSunny.9 mph62%29.98 "Hg10 mi
5:52 PM77 °FSunny.12 mph56%29.98 "Hg10 mi
4:52 PM79 °FSunny.12 mph47%29.98 "Hg10 mi
3:52 PM80 °FSunny.13 mph49%29.98 "Hg10 mi
2:52 PM79 °FSunny.15 mph48%29.99 "Hg10 mi
1:52 PM79 °FSunny.14 mph60%30.01 "Hg10 mi
12:52 PM78 °FSunny.13 mph62%30.03 "Hg10 mi
11:52 AM78 °FPassing clouds.10 mph66%30.05 "Hg10 mi
10:52 AM76 °FPassing clouds.12 mph74%30.06 "Hg10 mi
9:52 AM75 °FSunny.12 mph71%30.05 "Hg10 mi
8:52 AM71 °FSunny.12 mph81%30.04 "Hg10 mi
7:52 AM68 °FClear.10 mph90%30.02 "Hg10 mi
6:52 AM68 °FClear.10 mph90%30.01 "Hg10 mi
5:52 AM69 °FClear.8 mph87%30.00 "Hg10 mi
4:52 AM70 °FClear.8 mph84%30.00 "Hg10 mi
3:52 AM69 °FClear.10 mph84%29.99 "Hg10 mi
2:52 AM69 °FClear.10 mph84%29.99 "Hg10 mi
1:52 AM69 °FClear.9 mph84%30.01 "Hg9 mi
12:52 AM71 °FClear.8 mph81%30.00 "Hg10 mi
11:52 PM
Oct 20
72 °FClear.7 mph76%30.02 "Hg10 mi
Weather by CustomWeather, © 2014

See weather overviewHow to use our weather pages